{"data":{"norad_id":58032,"intl_designator":"2023-156E","name":"STARLINK-30561","alt_names":[],"object_type":"PAYLOAD","status":"ACTIVE","operator":null,"country":"US","launch_date":"2023-10-09","launch_site_code":"AFWTR","launch_vehicle":null,"mission":null,"orbit_class":"UNKNOWN","rcs_meters":null,"size_class":null,"mass_kg":null,"dimensions":null,"purposes":["comms"],"wikipedia_slug":null,"has_3d_model":false,"image_url":null,"decayed_at":null,"tle_current":{"epoch":"2026-09-20T11:15:29.212704Z","epoch_age_seconds":140353,"freshness":"FRESH","line1":"1 58032U 23156E   26263.46908811  .00002344  00000+0  80500-4 0  9990","line2":"2 58032  53.1561 251.6214 0001154  91.7874 268.3261 15.34396739166167","mean_motion":15.34396739,"eccentricity":0.0001154,"inclination_deg":53.1561,"raan_deg":251.6214,"arg_perigee_deg":91.7874,"mean_anomaly_deg":268.3261,"bstar":8.05e-5,"rev_number":16616,"period_min":93.84795753271,"perigee_km":461.92349852127,"apogee_km":463.50236668572,"semimajor_km":6840.8499326035,"source":"CELESTRAK","updated_at":"2026-09-21T09:00:33.758740Z"}}}